This is the latest recevied weather packets stored in our database for station/object DL4JCP-6. If no packets are shown the sender has not sent any weather packets the latest 10 day(s).
| Time | Temp. | Humidity | Pressure | Rain* | Wind** | Luminosity | Snow |
|---|---|---|---|---|---|---|---|
| 1777741398 | 22.22° C | 28% | 1020.1 hPa | 0 mm | - | - | - |
| 1777740498 | 22.22° C | 27% | 1020 hPa | 0 mm | - | - | - |
| 1777739598 | 22.78° C | 26% | 1020.3 hPa | 0 mm | - | - | - |
| 1777738702 | 22.78° C | 26% | 1020.3 hPa | 0 mm | - | - | - |
| 1777737798 | 23.33° C | 25% | 1020.6 hPa | 0 mm | - | - | - |
| 1777736897 | 23.33° C | 24% | 1020.8 hPa | 0 mm | - | - | - |
| 1777736001 | 23.33° C | 25% | 1020.9 hPa | 0 mm | - | - | - |
| 1777735099 | 23.33° C | 25% | 1021 hPa | 0 mm | - | - | - |
| 1777734198 | 23.33° C | 25% | 1021.1 hPa | 0 mm | - | - | - |
| 1777733297 | 23.33° C | 25% | 1021.3 hPa | 0 mm | - | - | - |
| 1777732400 | 23.33° C | 26% | 1021.3 hPa | 0 mm | - | - | - |
| 1777731498 | 23.33° C | 27% | 1021.8 hPa | 0 mm | - | - | - |
| 1777730597 | 23.89° C | 26% | 1021.8 hPa | 0 mm | - | - | - |
| 1777729701 | 23.33° C | 29% | 1022.1 hPa | 0 mm | - | - | - |
| 1777728797 | 22.78° C | 30% | 1022.2 hPa | 0 mm | - | - | - |
| 1777727898 | 23.33° C | 31% | 1022.7 hPa | 0 mm | - | - | - |
| 1777726997 | 22.78° C | 33% | 1022.9 hPa | 0 mm | - | - | - |
| 1777726097 | 22.78° C | 31% | 1023 hPa | 0 mm | - | - | - |
| 1777725200 | 22.22° C | 33% | 1023.2 hPa | 0 mm | - | - | - |
| 1777724297 | 22.78° C | 31% | 1023.5 hPa | 0 mm | - | - | - |
| 1777723397 | 22.22° C | 33% | 1023.7 hPa | 0 mm | - | - | - |
| 1777722497 | 22.22° C | 34% | 1023.8 hPa | 0 mm | - | - | - |
| 1777721597 | 22.22° C | 32% | 1024.1 hPa | 0 mm | - | - | - |
| 1777720700 | 22.22° C | 31% | 1024.3 hPa | 0 mm | - | - | - |
| 1777719800 | 21.67° C | 34% | 1024.4 hPa | 0 mm | - | - | - |
* Rain latest hour (hover to see other rain measurements)
** Current wind speed in m/s (hover to see current wind gust speed)